Location: ČR
(50.0000°N, 15.0000°E)
Time: 13:06:20
(UTC+00:00)

Tiros 1 - All Passes

Search period start: 25 October 2021 00:00
Search period end: 04 November 2021 00:00
Orbit: 630 x 664 km, 48.4° (Epoch: 24 October)

Date Brightness Start Highest point End Pass type
(mag) Time Alt. Az. Time Alt. Az. Time Alt. Az.
25 Oct - 07:49:41 10° S 07:52:28 15° SE 07:55:14 10° ESE daylight
25 Oct - 09:29:19 10° SW 09:33:51 45° SSE 09:38:22 10° E daylight
25 Oct - 11:11:03 10° W 11:15:50 74° S 11:20:32 10° E daylight
25 Oct - 12:53:13 10° W 12:57:53 57° SSW 13:02:27 10° ESE daylight
25 Oct - 14:35:49 10° W 14:39:28 23° SW 14:43:05 10° SSE daylight
26 Oct - 08:13:55 10° SSW 08:17:56 27° SSE 08:21:55 10° E daylight
26 Oct - 09:54:55 10° WSW 09:59:39 62° SSE 10:04:20 10° E daylight
26 Oct - 11:36:58 10° W 11:41:43 72° S 11:46:25 10° ESE daylight
26 Oct - 13:19:13 10° W 13:23:37 39° SSW 13:27:58 10° SE daylight
26 Oct - 15:03:03 10° WSW 15:04:52 12° SW 15:06:40 10° SSW daylight
27 Oct - 06:59:39 10° S 07:02:12 14° SE 07:04:45 10° ESE daylight
27 Oct - 08:39:02 10° SW 08:43:34 43° SSE 08:48:04 10° E daylight
27 Oct - 10:20:44 10° W 10:25:31 73° S 10:30:15 10° E daylight
27 Oct - 12:02:53 10° W 12:07:34 59° SSW 12:12:12 10° ESE daylight
27 Oct - 13:45:25 10° W 13:49:12 24° SW 13:52:57 10° SSE daylight
28 Oct - 07:23:43 10° SSW 07:27:38 26° SSE 07:31:34 10° E daylight
28 Oct - 09:04:36 10° WSW 09:09:19 60° SSE 09:14:02 10° E daylight
28 Oct - 10:46:38 10° W 10:51:24 73° S 10:56:07 10° ESE daylight
28 Oct - 12:28:52 10° W 12:33:20 41° SSW 12:37:43 10° SE daylight
28 Oct - 14:12:26 10° WSW 14:14:37 13° SW 14:16:48 10° SSW daylight
29 Oct - 06:09:39 10° SSE 06:11:57 13° SE 06:14:13 10° ESE daylight
29 Oct - 07:48:46 10° SW 07:53:15 41° SSE 07:57:44 10° E daylight
29 Oct - 09:30:25 10° WSW 09:35:12 73° S 09:39:56 10° E daylight
29 Oct - 11:12:34 10° W 11:17:16 61° SSW 11:21:55 10° ESE daylight
29 Oct - 12:55:02 10° W 12:58:56 26° SW 13:02:48 10° SSE daylight
30 Oct - 06:33:32 10° SSW 06:37:22 24° SE 06:41:13 10° E daylight
30 Oct - 08:14:18 10° WSW 08:19:01 59° SSE 08:23:43 10° E daylight
30 Oct - 09:56:19 10° W 10:01:05 74° S 10:05:49 10° E daylight
30 Oct - 11:38:32 10° W 11:43:02 43° SSW 11:47:29 10° SE daylight
30 Oct - 13:21:53 10° WSW 13:24:22 14° SW 13:26:51 10° S daylight
31 Oct - 05:19:44 10° SSE 05:21:41 12° SE 05:23:39 10° ESE daylight
31 Oct - 06:58:30 10° SW 07:02:58 39° SSE 07:07:25 10° E daylight
31 Oct - 08:40:05 10° WSW 08:44:53 72° S 08:49:38 10° E daylight
31 Oct - 10:22:13 10° W 10:26:57 63° SSW 10:31:38 10° ESE daylight
31 Oct - 12:04:40 10° W 12:08:40 27° SSW 12:12:37 10° SSE daylight
01 Nov - 05:43:21 10° SSW 05:47:06 23° SE 05:50:50 10° E daylight
01 Nov - 07:24:00 10° WSW 07:28:43 57° SSE 07:33:24 10° E daylight
01 Nov - 09:05:58 10° W 09:10:46 74° S 09:15:31 10° E daylight
01 Nov - 10:48:11 10° W 10:52:44 45° SSW 10:57:14 10° SE daylight
01 Nov - 12:31:22 10° WSW 12:34:08 15° SW 12:36:52 10° S daylight
02 Nov - 04:29:54 10° SSE 04:31:26 11° SE 04:32:58 10° ESE visible
02 Nov - 06:08:15 10° SW 06:12:41 37° SSE 06:17:05 10° E daylight
02 Nov - 07:49:46 10° WSW 07:54:33 71° S 07:59:19 10° E daylight
02 Nov - 09:31:53 10° W 09:36:39 64° SSW 09:41:21 10° ESE daylight
02 Nov - 11:14:17 10° W 11:18:23 29° SSW 11:22:26 10° SSE daylight
03 Nov - 04:53:11 10° SSW 04:56:49 22° SE 05:00:27 10° E visible
03 Nov - 06:33:42 10° WSW 06:38:24 55° SSE 06:43:05 10° E daylight
03 Nov - 08:15:39 10° W 08:20:27 74° S 08:25:13 10° E daylight
03 Nov - 09:57:51 10° W 10:02:26 47° SSW 10:06:59 10° SE daylight
03 Nov - 11:40:53 10° W 11:43:51 17° SW 11:46:50 10° S daylight
